Location: Castillon
(43.0896°N, 0.2156°E)
Time: 20:28:46
(UTC+00:00)

Cosmos 2322 - Pass Details

Date: 16 June 2021
Orbit: 840 x 855 km, 71.0° (Epoch: 23 July)

Event Time Altitude Azimuth Distance (km) Brightness Sun altitude
Exits shadow 22:02:54 24° 190° (S) 1,685 4.8 -18.3°
Maximum altitude 22:06:23 71° 111° (ESE) 888 3.6 -18.6°
Drops below altitude 10° 22:12:01 10° 29° (NNE) 2,466 6.6 -19.0°
Sets 22:14:28 0° 27° (NNE) 3,406 7.4 -19.2°
